Location: Newark
(45.2500°N, 7.5833°E)
Time: 19:13:37
(UTC+00:00)

Vanguard 3 - Pass Details

Date: 30 January 2020
Orbit: 508 x 3263 km, 33.3° (Epoch: 17 February)

Event Time Altitude Azimuth Distance (km) Brightness Sun altitude
Rises 18:27:05 0° 263° (W) 7,044 13.6 -20.1°
Reaches altitude 10° 18:31:47 10° 260° (W) 6,148 12.8 -20.9°
Maximum altitude 18:50:45 54° 191° (S) 3,475 10.3 -24.3°
Enters shadow 19:01:18 25° 128° (SE) 4,152 10.3 -26.1°
Drops below altitude 10° 19:05:31 10° 120° (ESE) 4,900 - -26.9°
Sets 19:08:48 0° 115° (ESE) 5,590 - -27.4°
